| time (UTC) | temp F | wind direction | speed knots | gust knots | rain 1hr in | rain 24hr in | rain mn in | humidity % | barometer mb |
| 20260507151620 | 57 | 226 | 0.9 | 3.5 | 0.00 | 0.41 | 0.39 | 79 | 1013.3 |
| 20260507144620 | 54 | 252 | 1.7 | 3.5 | 0.00 | 0.48 | 0.39 | 86 | 1013.4 |
| 20260507141619 | 54 | 246 | 1.7 | 3.5 | 0.02 | 0.48 | 0.39 | 86 | 1013.4 |
| 20260507134623 | 52 | 232 | 0.9 | 3.5 | 0.04 | 0.56 | 0.38 | 94 | 1013.7 |
| 20260507131622 | 47 | 217 | 0.0 | 1.7 | 0.19 | 0.54 | 0.36 | 95 | 1014.0 |
| 20260507130113 | 44 | 217 | 0.0 | 1.7 | 0.32 | 0.54 | 0.35 | 94 | 1014.1 |
| 20260507123114 | 43 | 217 | 0.0 | 2.6 | 0.28 | 0.52 | 0.30 | 90 | 1014.2 |
| 20260507120120 | 51 | 221 | 0.0 | 0.0 | 0.02 | 0.25 | 0.03 | 88 | 1014.0 |
| 20260507114619 | 51 | 221 | 0.0 | 0.0 | 0.02 | 0.30 | 0.02 | 88 | 1013.6 |
| 20260507111619 | 52 | 244 | 0.0 | 0.0 | 0.01 | 0.28 | 0.01 | 86 | 1013.4 |
| 20260507104617 | 52 | 248 | 0.0 | 0.0 | 0.01 | 0.33 | 0.01 | 86 | 1013.4 |
| 20260507103115 | 53 | 234 | 0.0 | 0.0 | 0.01 | 0.33 | 0.01 | 85 | 1013.4 |
| 20260507100119 | 54 | 236 | 0.0 | 0.0 | 0.00 | 0.32 | 0.00 | 82 | 1013.5 |
| 20260507093124 | 55 | 234 | 0.0 | 0.0 | 0.00 | 0.33 | 0.00 | 78 | 1013.2 |
| 20260507091617 | 57 | 5 | 0.0 | 0.0 | 0.00 | 0.33 | 0.00 | 83 | 1013.1 |
| 20260507084622 | 53 | 274 | 0.0 | 0.0 | 0.00 | 0.33 | 0.00 | 89 | 1013.4 |
| 20260507081619 | 51 | 217 | 0.0 | 0.0 | 0.00 | 0.33 | 0.00 | 83 | 1013.2 |
| 20260507074621 | 49 | 211 | 0.0 | 0.0 | 0.00 | 0.36 | 0.00 | 95 | 1012.9 |
| 20260507073125 | 48 | 286 | 0.0 | 0.0 | 0.00 | 0.36 | 0.00 | 96 | 1012.9 |
| 20260507070123 | 46 | 234 | 0.0 | 0.0 | 0.00 | 0.36 | 0.00 | 97 | 1012.6 |
| 20260507063119 | 45 | 234 | 0.0 | 0.0 | 0.00 | 0.50 | 0.00 | 97 | 1012.5 |
| 20260507061612 | 44 | 234 | 0.0 | 0.0 | 0.00 | 0.50 | 0.00 | 97 | 1012.5 |
| 20260507054618 | 43 | 234 | 0.0 | 0.0 | 0.00 | 0.58 | 0.00 | 97 | 1012.4 |
| 20260507053111 | 41 | 234 | 0.0 | 0.0 | 0.00 | 0.58 | 0.00 | 97 | 1012.2 |
| 20260507050119 | 39 | 234 | 0.0 | 0.0 | 0.00 | 0.58 | 0.00 | 96 | 1011.7 |
| 20260507043127 | 38 | 234 | 0.0 | 0.0 | 0.00 | 0.58 | 0.00 | 96 | 1011.6 |
| 20260507041617 | 38 | 234 | 0.0 | 0.0 | 0.00 | 0.58 | 0.00 | 96 | 1011.6 |
| 20260507040114 | 39 | 234 | 0.0 | 0.0 | 0.00 | 0.58 | 0.00 | 96 | 1011.4 |
| 20260507034622 | 39 | 234 | 0.0 | 0.0 | 0.00 | 0.58 | 0.00 | 96 | 1011.2 |
| 20260507033110 | 39 | 234 | 0.0 | 0.0 | 0.00 | 0.58 | 0.00 | 96 | 1011.4 |
| 20260507030108 | 40 | 234 | 0.0 | 0.0 | 0.00 | 0.58 | 0.00 | 96 | 1011.3 |
| 20260507023117 | 40 | 234 | 0.0 | 0.0 | 0.00 | 0.58 | 0.00 | 96 | 1011.1 |
| 20260507020120 | 40 | 234 | 0.0 | 0.0 | 0.00 | 0.58 | 0.00 | 96 | 1011.2 |
| 20260507014614 | 41 | 234 | 0.0 | 0.0 | 0.00 | 0.58 | 0.00 | 96 | 1011.1 |
| 20260507013112 | 42 | 234 | 0.0 | 0.0 | 0.00 | 0.58 | 0.00 | 96 | 1011.2 |
| 20260507011612 | 42 | 234 | 0.0 | 0.0 | 0.00 | 0.58 | 0.00 | 96 | 1011.2 |
| 20260507004620 | 44 | 234 | 0.0 | 0.0 | 0.00 | 0.58 | 0.00 | 96 | 1011.0 |
| 20260507001618 | 45 | 234 | 0.0 | 0.0 | 0.00 | 0.58 | 0.00 | 96 | 1011.2 |
| 20260507000110 | 46 | 234 | 0.0 | 0.0 | 0.00 | 0.58 | 0.00 | 96 | 1011.3 |
| 20260506233119 | 46 | 234 | 0.0 | 0.0 | 0.00 | 0.58 | 0.00 | 96 | 1011.2 |
| 20260506231611 | 46 | 234 | 0.0 | 0.0 | 0.00 | 0.58 | 0.00 | 96 | 1011.3 |
| 20260506224620 | 47 | 234 | 0.0 | 0.0 | 0.00 | 0.58 | 0.00 | 96 | 1011.4 |
| 20260506223110 | 47 | 234 | 0.0 | 0.0 | 0.00 | 0.58 | 0.00 | 96 | 1011.5 |
| 20260506220143 | 47 | 234 | 0.0 | 0.0 | 0.00 | 0.58 | 0.00 | 95 | 1011.3 |
| 20260506214612 | 48 | 234 | 0.0 | 0.0 | 0.00 | 0.58 | 0.58 | 95 | 1011.3 |
| 20260506211612 | 49 | 234 | 0.0 | 1.7 | 0.00 | 0.58 | 0.58 | 95 | 1011.5 |
| 20260506204616 | 49 | 234 | 0.0 | 0.9 | 0.00 | 0.58 | 0.58 | 95 | 1011.3 |
| 20260506201622 | 50 | 234 | 0.9 | 1.7 | 0.00 | 0.58 | 0.58 | 95 | 1011.1 |
| 20260506194621 | 49 | 234 | 0.0 | 0.0 | 0.02 | 0.58 | 0.58 | 95 | 1010.9 |
| 20260506191623 | 50 | 234 | 0.0 | 1.7 | 0.02 | 0.58 | 0.58 | 95 | 1010.5 |
| 20260506190110 | 50 | 236 | 4.3 | 7.0 | 0.01 | 0.57 | 0.57 | 95 | 1010.5 |
| 20260506183115 | 50 | 248 | 0.0 | 0.0 | 0.00 | 0.57 | 0.56 | 94 | 1010.1 |
| 20260506180117 | 51 | 248 | 0.0 | 0.0 | 0.00 | 0.57 | 0.56 | 93 | 1010.0 |
| 20260506174615 | 51 | 248 | 0.0 | 0.9 | 0.00 | 0.57 | 0.56 | 93 | 1009.9 |
| 20260506171619 | 52 | 248 | 0.0 | 2.6 | 0.00 | 0.57 | 0.56 | 92 | 1009.7 |
| 20260506164621 | 52 | 248 | 0.0 | 1.7 | 0.00 | 0.58 | 0.56 | 92 | 1009.6 |
| 20260506163117 | 52 | 248 | 0.0 | 4.3 | 0.00 | 0.58 | 0.56 | 91 | 1009.3 |
| 20260506160122 | 52 | 271 | 0.0 | 2.6 | 0.00 | 0.58 | 0.56 | 92 | 1009.6 |